Location: *
(33.8649°S, 62.1526°E)
Time: 20:42:24
(UTC+00:00)

Tiangong - Pass Details

Date: 21 September 2021
Orbit: 382 x 385 km, 41.5° (Epoch: 16 October)

Event Time Altitude Azimuth Distance (km) Brightness Sun altitude
Rises 14:05:00 0° 312° (NW) 2,265 5.7 -4.5°
Reaches altitude 10° 14:07:07 10° 319° (NW) 1,416 4.5 -5.0°
Maximum altitude 14:10:11 44° 32° (NNE) 552 1.6 -5.6°
Drops below altitude 10° 14:13:17 10° 106° (ESE) 1,430 3.3 -6.3°
Enters shadow 14:13:54 - 108° (ESE) 1,672 3.7 -6.4°
